Location: Newark
(37.9717°N, 99.9089°W)
Time: 09:00:47
(UTC+00:00)

OTV 5 (USA 277) - Visible Passes

Search period start: 25 August 2019 00:00
Search period end: 04 September 2019 00:00
Orbit: 305 x 329 km, 54.5° (Epoch: 20 August)

Date Brightness Start Highest point End Pass type
(mag) Time Alt. Az. Time Alt. Az. Time Alt. Az.
25 Aug ? 03:03:38 10° W 03:05:53 23° NW 03:08:00 11° NNE visible
26 Aug ? 01:43:25 10° SW 01:46:06 61° SE 01:48:46 10° NE visible
26 Aug ? 03:19:49 10° NW 03:20:40 11° NNW 03:21:32 10° NNW visible
27 Aug ? 01:58:06 10° WSW 02:00:39 37° NW 02:03:13 10° NNE visible
28 Aug ? 02:13:36 10° WNW 02:15:22 16° NNW 02:17:08 10° N visible
